AVA010 SKRG-PHNL

Flight info

Callsign AVA010
Flight time N/A
Altitude 24000
Route IBDAM1A NENES A323 IVROS/N0441F180 A323 TBG A502 DAV/N0500F360 DCT EBDEL DCT 16N105W/N0495F380 DCT 17N10 DCT 19N20 DCT 20N25/N0488F400 DCT 21N30 DCT 21N40 DCT 21N41 DCT 21N42 DCT 21N50 DCT FAPIS R578 BYROW DCT PUMIC V21 LNY SHLAE1
Aircraft B788/H-SDE1E2E3FGHIJ2J3J4J5M1RWXY/LB1D1

Departure

Time 2026-05-09 04:42
Airport Jose Maria Córdova International Airport (SKRG)

Arrival

Time N/A
Airport Daniel K. Inouye International Airport (PHNL)
Time Latitude Longitude Altitude Speed Heading
2026-05-09 04:12 6.17319 -75.42833 7026 ft 0 kts 192°
2026-05-09 04:14 6.17297 -75.42768 7026 ft 0 kts 211°
2026-05-09 04:30 6.17299 -75.42767 7023 ft 3 kts 211°
2026-05-09 04:30 6.17322 -75.42753 7023 ft 4 kts 209°
2026-05-09 04:30 6.17343 -75.42741 7022 ft 4 kts 198°
2026-05-09 04:30 6.17364 -75.42741 7023 ft 4 kts 126°
2026-05-09 04:31 6.17372 -75.42765 7022 ft 4 kts 96°
2026-05-09 04:31 6.17376 -75.42789 7024 ft 2 kts 112°
2026-05-09 04:31 6.17376 -75.42790 7024 ft 0 kts 113°
2026-05-09 04:34 6.17376 -75.42788 7024 ft 2 kts 113°
2026-05-09 04:34 6.17361 -75.42755 7023 ft 6 kts 114°
2026-05-09 04:34 6.17336 -75.42708 7025 ft 7 kts 120°
2026-05-09 04:34 6.17335 -75.42707 7025 ft 0 kts 120°
2026-05-09 04:35 6.17334 -75.42704 7026 ft 3 kts 120°
2026-05-09 04:35 6.17328 -75.42651 7025 ft 9 kts 71°
2026-05-09 04:35 6.17373 -75.42622 7026 ft 10 kts 20°
2026-05-09 04:35 6.17462 -75.42562 7026 ft 18 kts 39°
2026-05-09 04:36 6.17554 -75.42502 7029 ft 14 kts 23°
2026-05-09 04:36 6.17659 -75.42490 7028 ft 16 kts 359°
2026-05-09 04:36 6.17758 -75.42491 7032 ft 13 kts 360°
2026-05-09 04:36 6.17838 -75.42491 7034 ft 12 kts
2026-05-09 04:37 6.17908 -75.42492 7034 ft 10 kts 358°
2026-05-09 04:37 6.17987 -75.42488 7035 ft 10 kts 18°
2026-05-09 04:37 6.18015 -75.42443 7038 ft 6 kts 85°
2026-05-09 04:37 6.18015 -75.42434 7038 ft 0 kts 86°
2026-05-09 04:39 6.18017 -75.42408 7038 ft 8 kts 86°
2026-05-09 04:39 6.18011 -75.42345 7038 ft 9 kts 113°
2026-05-09 04:39 6.17965 -75.42322 7037 ft 7 kts 179°
2026-05-09 04:40 6.17953 -75.42322 7036 ft 0 kts 179°
2026-05-09 04:41 6.17908 -75.42322 7035 ft 29 kts 179°
2026-05-09 04:41 6.17467 -75.42318 7028 ft 97 kts 179°
2026-05-09 04:42 6.16549 -75.42310 6989 ft 158 kts 180°
2026-05-09 04:42 6.15314 -75.42311 7211 ft 181 kts 180°
2026-05-09 04:42 6.14064 -75.42322 7856 ft 181 kts 178°
2026-05-09 04:42 6.12759 -75.42268 8101 ft 201 kts 178°
2026-05-09 04:43 6.11274 -75.42231 8226 ft 226 kts 172°
2026-05-09 04:43 6.09678 -75.41812 8418 ft 247 kts 157°
2026-05-09 04:43 6.08188 -75.40972 9184 ft 236 kts 142°
2026-05-09 04:43 6.06982 -75.39866 9905 ft 239 kts 129°
2026-05-09 04:44 6.06053 -75.38453 9986 ft 244 kts 114°
2026-05-09 04:44 6.05521 -75.36881 9977 ft 233 kts 102°
2026-05-09 04:44 6.05370 -75.35276 9955 ft 230 kts 89°
2026-05-09 04:44 6.05589 -75.33690 9965 ft 231 kts 76°
2026-05-09 04:45 6.06181 -75.32167 9956 ft 231 kts 63°
2026-05-09 04:45 6.07113 -75.30827 9949 ft 231 kts 49°
2026-05-09 04:45 6.08238 -75.29640 10191 ft 236 kts 48°
2026-05-09 04:45 6.09390 -75.28414 10484 ft 250 kts 48°
2026-05-09 04:46 6.10590 -75.27177 10437 ft 242 kts 42°
2026-05-09 04:46 6.12075 -75.26444 10413 ft 244 kts 13°
2026-05-09 04:46 6.13865 -75.26268 10488 ft 273 kts
2026-05-09 04:46 6.15873 -75.26171 10702 ft 303 kts
2026-05-09 04:47 6.18076 -75.26063 10963 ft 331 kts
2026-05-09 04:47 6.20470 -75.25920 11180 ft 358 kts
2026-05-09 04:47 6.23047 -75.25895 11378 ft 382 kts 352°
2026-05-09 04:47 6.25553 -75.26780 12300 ft 385 kts 331°
2026-05-09 04:48 6.27669 -75.28458 13066 ft 393 kts 314°
2026-05-09 04:48 6.29429 -75.30599 13860 ft 399 kts 308°
2026-05-09 04:48 6.31070 -75.32875 14592 ft 403 kts 306°
2026-05-09 04:48 6.32591 -75.35253 15361 ft 407 kts 296°
2026-05-09 04:49 6.33477 -75.37930 15917 ft 410 kts 284°
2026-05-09 04:49 6.34167 -75.40735 16606 ft 415 kts 283°
2026-05-09 04:49 6.34807 -75.43559 17394 ft 416 kts 283°
2026-05-09 04:49 6.35458 -75.46406 18123 ft 419 kts 283°
2026-05-09 04:50 6.36139 -75.49254 18782 ft 421 kts 283°
2026-05-09 04:50 6.36825 -75.52142 19236 ft 427 kts 282°
2026-05-09 04:50 6.37094 -75.55114 19781 ft 430 kts 266°
2026-05-09 04:50 6.36613 -75.58083 20299 ft 433 kts 253°
2026-05-09 04:51 6.35449 -75.60887 20839 ft 437 kts 243°
2026-05-09 04:51 6.34066 -75.63624 21324 ft 441 kts 242°
2026-05-09 04:51 6.32647 -75.66375 21976 ft 445 kts 242°
2026-05-09 04:51 6.31228 -75.69155 22478 ft 449 kts 242°
2026-05-09 04:52 6.29812 -75.71965 22951 ft 453 kts 242°
2026-05-09 04:52 6.28448 -75.74834 23420 ft 457 kts 249°
2026-05-09 04:52 6.27649 -75.77945 23834 ft 462 kts 262°
2026-05-09 04:52 6.27534 -75.81177 24217 ft 466 kts 274°
2026-05-09 04:53 6.28116 -75.84386 24590 ft 470 kts 287°
2026-05-09 04:53 6.29388 -75.87428 24950 ft 474 kts 300°
2026-05-09 04:53 6.31190 -75.90211 25293 ft 477 kts 304°
2026-05-09 04:53 6.33076 -75.92965 25663 ft 480 kts 304°
2026-05-09 04:54 6.34993 -75.95724 26041 ft 483 kts 304°
2026-05-09 04:54 6.36909 -75.98514 26410 ft 486 kts 304°
2026-05-09 04:54 6.38824 -76.01332 26783 ft 489 kts 304°
2026-05-09 04:54 6.40755 -76.04158 27145 ft 492 kts 304°
2026-05-09 04:55 6.42710 -76.07001 27507 ft 495 kts 304°
2026-05-09 04:55 6.44671 -76.09860 27854 ft 498 kts 304°
2026-05-09 04:55 6.46637 -76.12740 28202 ft 501 kts 304°
2026-05-09 04:55 6.48614 -76.15632 28582 ft 502 kts 304°
2026-05-09 04:56 6.50566 -76.18482 29017 ft 503 kts 304°
2026-05-09 04:56 6.52558 -76.21391 29275 ft 507 kts 304°
2026-05-09 04:56 6.54555 -76.24312 29677 ft 507 kts 304°
2026-05-09 04:56 6.56541 -76.27222 30042 ft 509 kts 304°
2026-05-09 04:57 6.58620 -76.30268 30318 ft 512 kts 304°
2026-05-09 04:57 6.60640 -76.33226 30600 ft 513 kts 304°
2026-05-09 04:57 6.62664 -76.36191 30792 ft 516 kts 304°
2026-05-09 04:57 6.64698 -76.39173 31027 ft 519 kts 304°
2026-05-09 04:58 6.66741 -76.42168 31334 ft 519 kts 304°
2026-05-09 04:58 6.68785 -76.45162 31712 ft 518 kts 304°
2026-05-09 04:58 6.70164 -76.47182 31952 ft 518 kts 304°
2026-05-09 04:58 6.72177 -76.50134 32300 ft 517 kts 304°
2026-05-09 04:59 6.74212 -76.53117 32539 ft 518 kts 304°
2026-05-09 04:59 6.76250 -76.56108 32878 ft 518 kts 303°
2026-05-09 04:59 6.78287 -76.59096 33245 ft 517 kts 303°
2026-05-09 04:59 6.80322 -76.62080 33622 ft 516 kts 303°
2026-05-09 05:00 6.82350 -76.65057 33959 ft 516 kts 303°
2026-05-09 05:00 6.84379 -76.68036 34280 ft 515 kts 303°
2026-05-09 05:00 6.86407 -76.71000 34631 ft 513 kts 303°
2026-05-09 05:00 6.88450 -76.73947 34975 ft 512 kts 304°
2026-05-09 05:01 6.90488 -76.76882 35323 ft 511 kts 304°
2026-05-09 05:01 6.92506 -76.79812 35673 ft 509 kts 304°
2026-05-09 05:01 6.94519 -76.82744 35850 ft 511 kts 304°
2026-05-09 05:02 6.98597 -76.88650 35840 ft 512 kts 304°
2026-05-09 05:02 7.02652 -76.94535 35847 ft 511 kts 304°
2026-05-09 05:03 7.06681 -77.00381 35846 ft 511 kts 304°
2026-05-09 05:03 7.10736 -77.06269 35845 ft 511 kts 304°
2026-05-09 05:04 7.14790 -77.12158 35850 ft 511 kts 304°
2026-05-09 05:04 7.18843 -77.18045 35853 ft 511 kts 304°
2026-05-09 05:05 7.22902 -77.23946 35863 ft 511 kts 304°
2026-05-09 05:05 7.26966 -77.29853 35866 ft 513 kts 304°
2026-05-09 05:06 7.31000 -77.35721 35865 ft 512 kts 304°
2026-05-09 05:06 7.35049 -77.41613 35865 ft 511 kts 304°
2026-05-09 05:07 7.39093 -77.47499 35863 ft 510 kts 304°
2026-05-09 05:07 7.43132 -77.53380 35873 ft 509 kts 304°
2026-05-09 05:08 7.47152 -77.59235 35878 ft 508 kts 304°
2026-05-09 05:08 7.51179 -77.65104 35878 ft 509 kts 305°
2026-05-09 05:09 7.55213 -77.70984 35885 ft 509 kts 305°
2026-05-09 05:09 7.59214 -77.76879 35895 ft 509 kts 304°
2026-05-09 05:10 7.63134 -77.82840 35890 ft 509 kts 304°
2026-05-09 05:10 7.67106 -77.88766 35890 ft 510 kts 304°
2026-05-09 05:11 7.71046 -77.94713 35890 ft 510 kts 304°
2026-05-09 05:11 7.74975 -78.00609 35885 ft 509 kts 304°
2026-05-09 05:12 7.78912 -78.06541 35882 ft 509 kts 303°
2026-05-09 05:12 7.82837 -78.12444 35872 ft 502 kts 303°
2026-05-09 05:13 7.86702 -78.18268 35866 ft 500 kts 303°
2026-05-09 05:13 7.90585 -78.24115 35869 ft 503 kts 303°
2026-05-09 05:14 7.94487 -78.29997 35869 ft 504 kts 303°
2026-05-09 05:14 7.98382 -78.35868 35872 ft 503 kts 303°
2026-05-09 05:15 8.02273 -78.41736 35867 ft 502 kts 303°
2026-05-09 05:15 8.06157 -78.47597 35866 ft 501 kts 303°
2026-05-09 05:16 8.10033 -78.53446 35862 ft 501 kts 303°
2026-05-09 05:16 8.13909 -78.59300 35862 ft 501 kts 303°
2026-05-09 05:17 8.17827 -78.65122 35866 ft 501 kts 304°
2026-05-09 05:17 8.21715 -78.70918 35861 ft 501 kts 303°
2026-05-09 05:18 8.25625 -78.76748 35860 ft 501 kts 304°
2026-05-09 05:18 8.29538 -78.82582 35861 ft 501 kts 303°
2026-05-09 05:19 8.33447 -78.88417 35860 ft 501 kts 303°
2026-05-09 05:19 8.37356 -78.94249 35861 ft 501 kts 303°
2026-05-09 05:20 8.41266 -79.00090 35854 ft 501 kts 303°
2026-05-09 05:20 8.45168 -79.05917 35853 ft 501 kts 303°
2026-05-09 05:21 8.49064 -79.11741 35853 ft 500 kts 304°
2026-05-09 05:21 8.52952 -79.17553 35843 ft 499 kts 304°
2026-05-09 05:22 8.56817 -79.23336 35844 ft 501 kts 303°
2026-05-09 05:22 8.60713 -79.29166 35843 ft 500 kts 303°
2026-05-09 05:23 8.64604 -79.34991 35843 ft 499 kts 303°
2026-05-09 05:23 8.68495 -79.40819 35845 ft 500 kts 303°
2026-05-09 05:24 8.72388 -79.46652 35836 ft 502 kts 303°
2026-05-09 05:24 8.76133 -79.52612 35856 ft 500 kts 293°
2026-05-09 05:24 8.77324 -79.55912 35858 ft 499 kts 282°
2026-05-09 05:25 8.77875 -79.59373 35860 ft 497 kts 271°
2026-05-09 05:25 8.76799 -79.69796 35854 ft 498 kts 261°
2026-05-09 05:26 8.75774 -79.76714 35859 ft 498 kts 261°
2026-05-09 05:26 8.74774 -79.83651 35855 ft 498 kts 261°
2026-05-09 05:27 8.73716 -79.90593 35870 ft 499 kts 261°
2026-05-09 05:27 8.72690 -79.97494 35870 ft 500 kts 261°
2026-05-09 05:28 8.71642 -80.04436 35878 ft 499 kts 261°
2026-05-09 05:28 8.70703 -80.11402 35873 ft 500 kts 262°
2026-05-09 05:29 8.69774 -80.18369 35882 ft 499 kts 261°
2026-05-09 05:29 8.68826 -80.25330 35883 ft 499 kts 262°
2026-05-09 05:30 8.67893 -80.32295 35888 ft 500 kts 261°
2026-05-09 05:30 8.66952 -80.39210 35884 ft 500 kts 262°
2026-05-09 05:31 8.66013 -80.46178 35883 ft 499 kts 261°
2026-05-09 05:31 8.65067 -80.53135 35889 ft 499 kts 262°
2026-05-09 05:32 8.64123 -80.60101 35891 ft 501 kts 262°
2026-05-09 05:32 8.63172 -80.67092 35903 ft 502 kts 261°
2026-05-09 05:33 8.62221 -80.74085 35900 ft 502 kts 261°
2026-05-09 05:33 8.61273 -80.81028 35907 ft 501 kts 262°
2026-05-09 05:34 8.60321 -80.88002 35909 ft 501 kts 261°
2026-05-09 05:34 8.59367 -80.94987 35916 ft 502 kts 261°
2026-05-09 05:35 8.58409 -81.01976 35913 ft 502 kts 261°
2026-05-09 05:35 8.57451 -81.08963 35916 ft 502 kts 261°
2026-05-09 05:36 8.56491 -81.15952 35919 ft 502 kts 261°
2026-05-09 05:36 8.55529 -81.22942 35925 ft 502 kts 261°
2026-05-09 05:37 8.54574 -81.29878 35925 ft 501 kts 261°
2026-05-09 05:37 8.53613 -81.36844 35921 ft 500 kts 261°
2026-05-09 05:38 8.52651 -81.43810 35920 ft 500 kts 261°
2026-05-09 05:38 8.51688 -81.50774 35925 ft 500 kts 261°
2026-05-09 05:39 8.50886 -81.56567 35925 ft 501 kts 261°
2026-05-09 05:39 8.49918 -81.63549 35923 ft 502 kts 261°
2026-05-09 05:40 8.48947 -81.70542 35924 ft 502 kts 261°
2026-05-09 05:40 8.47975 -81.77536 35922 ft 503 kts 261°
2026-05-09 05:41 8.47000 -81.84540 35909 ft 503 kts 261°
2026-05-09 05:41 8.46032 -81.91489 35910 ft 502 kts 261°
2026-05-09 05:42 8.45055 -81.98459 35894 ft 501 kts 261°
2026-05-09 05:42 8.44069 -82.05424 35892 ft 500 kts 261°
2026-05-09 05:43 8.43089 -82.12372 35874 ft 499 kts 261°
2026-05-09 05:43 8.42105 -82.19318 35873 ft 500 kts 261°
2026-05-09 05:44 8.41117 -82.26287 35849 ft 501 kts 261°
2026-05-09 05:44 8.40107 -82.33243 35851 ft 501 kts 261°
2026-05-09 05:45 8.39111 -82.40215 35852 ft 501 kts 263°
2026-05-09 05:45 8.39024 -82.43684 35879 ft 502 kts 275°
2026-05-09 05:45 8.39605 -82.47171 35878 ft 504 kts 286°
2026-05-09 05:46 8.41567 -82.53972 35864 ft 504 kts 286°
2026-05-09 05:46 8.43564 -82.60755 35887 ft 503 kts 286°
2026-05-09 05:47 8.45538 -82.67544 35887 ft 502 kts 286°
2026-05-09 05:47 8.47517 -82.74308 35880 ft 502 kts 286°
2026-05-09 05:48 8.49473 -82.81028 35879 ft 503 kts 286°
2026-05-09 05:48 8.51461 -82.87845 35880 ft 505 kts 286°
2026-05-09 05:49 8.53447 -82.94668 35878 ft 506 kts 286°
2026-05-09 05:49 8.55435 -83.01497 35869 ft 506 kts 286°
2026-05-09 05:50 8.57419 -83.08321 35869 ft 506 kts 286°
2026-05-09 05:50 8.59401 -83.15142 35886 ft 506 kts 286°
2026-05-09 05:51 8.61385 -83.21973 35878 ft 506 kts 286°
2026-05-09 05:51 8.63353 -83.28755 35878 ft 506 kts 286°
2026-05-09 05:52 8.65331 -83.35577 35868 ft 506 kts 286°
2026-05-09 05:52 8.67308 -83.42403 35865 ft 505 kts 286°
2026-05-09 05:53 8.69279 -83.49208 35862 ft 503 kts 286°
2026-05-09 05:53 8.71243 -83.55997 35853 ft 502 kts 286°
2026-05-09 05:54 8.73204 -83.62780 35847 ft 503 kts 286°
2026-05-09 05:54 8.75169 -83.69579 35855 ft 504 kts 286°
2026-05-09 05:55 8.77124 -83.76351 35855 ft 505 kts 286°
2026-05-09 05:55 8.79093 -83.83177 35860 ft 506 kts 286°
2026-05-09 05:56 8.81064 -83.90013 35859 ft 506 kts 286°
2026-05-09 05:56 8.83029 -83.96835 35853 ft 504 kts 286°
2026-05-09 05:57 8.84992 -84.03652 35852 ft 505 kts 286°
2026-05-09 05:57 8.86954 -84.10475 35853 ft 505 kts 286°
2026-05-09 05:58 8.88916 -84.17298 35856 ft 505 kts 286°
2026-05-09 05:58 8.90874 -84.24118 35857 ft 505 kts 286°
2026-05-09 05:59 8.92834 -84.30946 35852 ft 506 kts 286°
2026-05-09 05:59 8.94793 -84.37777 35854 ft 505 kts 286°
2026-05-09 06:00 8.96749 -84.44602 35849 ft 505 kts 286°
2026-05-09 06:00 8.98692 -84.51385 35849 ft 505 kts 286°
2026-05-09 06:01 9.00646 -84.58214 35850 ft 505 kts 286°
2026-05-09 06:01 9.02600 -84.65046 35851 ft 505 kts 286°
2026-05-09 06:02 9.04556 -84.71892 35849 ft 505 kts 286°
2026-05-09 06:02 9.06492 -84.78673 35848 ft 503 kts 286°
2026-05-09 06:03 9.08432 -84.85474 35848 ft 502 kts 286°
2026-05-09 06:03 9.10366 -84.92256 35846 ft 502 kts 286°
2026-05-09 06:04 9.12301 -84.99051 35847 ft 502 kts 286°
2026-05-09 06:04 9.14224 -85.05805 35848 ft 502 kts 286°
2026-05-09 06:05 9.16158 -85.12604 35855 ft 503 kts 286°
2026-05-09 06:05 9.18091 -85.19406 35856 ft 503 kts 286°
2026-05-09 06:06 9.20023 -85.26209 35858 ft 503 kts 286°
2026-05-09 06:06 9.21955 -85.33016 35859 ft 504 kts 286°
2026-05-09 06:07 9.23888 -85.39832 35855 ft 504 kts 286°
2026-05-09 06:07 9.25824 -85.46665 35857 ft 504 kts 286°
2026-05-09 06:08 9.27761 -85.53508 35858 ft 505 kts 286°
2026-05-09 06:08 9.29698 -85.60353 35858 ft 505 kts 286°
2026-05-09 06:09 9.31614 -85.67132 35857 ft 503 kts 286°
2026-05-09 06:09 9.33538 -85.73945 35853 ft 502 kts 286°
2026-05-09 06:10 9.35456 -85.80739 35850 ft 502 kts 286°
2026-05-09 06:10 9.37376 -85.87549 35851 ft 503 kts 286°
2026-05-09 06:11 9.39300 -85.94377 35854 ft 504 kts 286°
2026-05-09 06:11 9.41226 -86.01216 35857 ft 505 kts 286°
2026-05-09 06:12 9.43152 -86.08060 35858 ft 505 kts 286°
2026-05-09 06:12 9.45061 -86.14852 35856 ft 504 kts 286°
2026-05-09 06:13 9.46014 -86.18243 36404 ft 496 kts 286°
2026-05-09 06:13 9.46953 -86.21587 36824 ft 493 kts 286°
2026-05-09 06:13 9.47891 -86.24928 37142 ft 492 kts 286°
2026-05-09 06:13 9.48825 -86.28256 37472 ft 491 kts 286°
2026-05-09 06:14 9.49758 -86.31582 37800 ft 490 kts 286°
2026-05-09 06:14 9.50690 -86.34906 38112 ft 489 kts 286°
2026-05-09 06:14 9.51619 -86.38220 38418 ft 488 kts 286°
2026-05-09 06:14 9.52545 -86.41524 38694 ft 487 kts 286°
2026-05-09 06:15 9.53469 -86.44824 38948 ft 486 kts 286°
2026-05-09 06:15 9.54391 -86.48119 39199 ft 485 kts 286°
2026-05-09 06:15 9.55311 -86.51404 39440 ft 484 kts 286°
2026-05-09 06:15 9.56229 -86.54687 39681 ft 483 kts 286°
2026-05-09 06:16 9.57144 -86.57960 39846 ft 484 kts 286°
2026-05-09 06:16 9.58065 -86.61253 39841 ft 487 kts 286°
2026-05-09 06:16 9.59901 -86.67826 39838 ft 482 kts 286°
2026-05-09 06:17 9.61722 -86.74347 39844 ft 480 kts 286°
2026-05-09 06:17 9.63526 -86.80816 39838 ft 480 kts 286°
2026-05-09 06:18 9.65340 -86.87325 39838 ft 480 kts 286°
2026-05-09 06:18 9.67154 -86.93839 39831 ft 481 kts 286°
2026-05-09 06:19 9.68971 -87.00368 39841 ft 481 kts 286°
2026-05-09 06:19 9.70789 -87.06905 39844 ft 482 kts 286°
2026-05-09 06:20 9.72611 -87.13461 39844 ft 483 kts 286°
2026-05-09 06:20 9.74433 -87.20023 39851 ft 484 kts 286°
2026-05-09 06:21 9.76256 -87.26598 39845 ft 483 kts 286°
2026-05-09 06:21 9.78070 -87.33140 39839 ft 481 kts 286°
2026-05-09 06:22 9.79571 -87.38560 39842 ft 480 kts 286°
2026-05-09 06:22 9.81668 -87.46137 39837 ft 480 kts 286°
2026-05-09 06:23 9.83475 -87.52674 39838 ft 481 kts 286°
2026-05-09 06:23 9.84987 -87.58143 39842 ft 481 kts 286°
2026-05-09 06:24 9.86790 -87.64674 39839 ft 481 kts 286°
2026-05-09 06:24 9.88593 -87.71209 39832 ft 481 kts 286°
2026-05-09 06:25 9.90384 -87.77708 39839 ft 481 kts 286°
2026-05-09 06:25 9.92185 -87.84244 39837 ft 481 kts 286°
2026-05-09 06:26 9.93982 -87.90775 39842 ft 481 kts 286°
2026-05-09 06:26 9.95781 -87.97317 39841 ft 481 kts 286°
2026-05-09 06:27 9.97582 -88.03872 39844 ft 482 kts 286°
2026-05-09 06:27 9.99381 -88.10424 39849 ft 481 kts 286°
2026-05-09 06:28 10.01177 -88.16970 39844 ft 481 kts 286°
2026-05-09 06:28 10.02973 -88.23525 39845 ft 482 kts 286°
2026-05-09 06:29 10.04757 -88.30039 39844 ft 482 kts 286°
2026-05-09 06:29 10.06550 -88.36585 39844 ft 481 kts 287°
2026-05-09 06:30 10.08936 -88.42922 39850 ft 481 kts 292°
2026-05-09 06:30 10.11431 -88.49234 39850 ft 481 kts 292°
2026-05-09 06:31 10.13926 -88.55565 39852 ft 482 kts 292°
2026-05-09 06:31 10.16420 -88.61885 39848 ft 481 kts 292°
2026-05-09 06:32 10.18889 -88.68154 39846 ft 481 kts 292°
2026-05-09 06:33 10.22614 -88.77610 39845 ft 481 kts 292°
2026-05-09 06:33 10.25098 -88.83927 39848 ft 482 kts 292°
2026-05-09 06:34 10.28830 -88.93423 39847 ft 482 kts 292°
2026-05-09 06:34 10.31322 -88.99764 39848 ft 483 kts 292°
2026-05-09 06:35 10.33792 -89.06058 39847 ft 482 kts 292°
2026-05-09 06:35 10.36273 -89.12384 39846 ft 482 kts 292°
2026-05-09 06:36 10.38754 -89.18712 39846 ft 481 kts 292°
2026-05-09 06:36 10.41224 -89.25017 39842 ft 481 kts 292°
2026-05-09 06:37 10.43701 -89.31345 39844 ft 483 kts 292°
2026-05-09 06:37 10.46182 -89.37685 39844 ft 483 kts 292°
2026-05-09 06:38 10.48671 -89.44054 39846 ft 484 kts 292°
2026-05-09 06:38 10.51138 -89.50368 39847 ft 484 kts 292°
2026-05-09 06:39 10.53617 -89.56719 39848 ft 483 kts 292°
2026-05-09 06:39 10.56097 -89.63070 39847 ft 483 kts 292°
2026-05-09 06:40 10.58575 -89.69424 39842 ft 484 kts 292°
2026-05-09 06:40 10.61058 -89.75801 39845 ft 485 kts 293°
2026-05-09 06:41 10.63542 -89.82175 39843 ft 485 kts 292°
2026-05-09 06:41 10.66019 -89.88545 39844 ft 484 kts 292°
2026-05-09 06:42 10.68481 -89.94873 39844 ft 484 kts 292°
2026-05-09 06:42 10.70971 -90.01284 39836 ft 485 kts 293°
2026-05-09 06:43 10.73435 -90.07625 39841 ft 485 kts 292°
2026-05-09 06:43 10.75914 -90.14014 39842 ft 486 kts 292°
2026-05-09 06:44 10.78399 -90.20424 39847 ft 487 kts 293°
2026-05-09 06:44 10.80884 -90.26837 39845 ft 486 kts 292°